Tracking 30918 objects as of 2-Jul-2025
HD Live streaming from Space Station
objects crossing your sky now

STARLINK-2285

Track STARLINK-2285 now!
10-day predictions
STARLINK-2285 is classified as:


NORAD ID: 48019
Int'l Code: 2021-024AU
Perigee: 553.4 km
Apogee: 555.3 km
Inclination: 53.1 °
Period: 95.6 minutes
Semi major axis: 6925 km
RCS: Unknown
Launch date: March 24, 2021
Source: United States (US)
Launch site: AIR FORCE EASTERN TEST RANGE (AFETR)
Your satellite tracking list
Your tracking list is empty




NASA's NSSDC Master Catalog

Two Line Element Set (TLE):
1 48019U 21024AU  25182.85972792  .00001314  00000-0  10708-3 0  9996
2 48019  53.0561 357.6402 0001330  98.1244 261.9896 15.06402391237044
Source of the keplerian elements: AFSPC